www.pogodaiklimat.ru

Погода и климат >> Архив погоды >> Норвегия >> Флиса


ПОГОДА во Флиса

  • Прогноз погоды во Флиса
  • Монитор погоды во Флиса

АРХИВ ПОГОДЫ во Флиса

Время (UTC), дата Ветер
(напр.,м/с)
 
Видим.   Явления Облачность Т
(С)
Тd
(С)
f
(%)
Тe
(С)
Тes
(С)
Комфортность P
(гПа)
Po
(гПа)
Тmin
(С)
Tmax
(С)
R
(мм)
R24
(мм)
S
(см)
22 10.06 В 1-2
{3}
н/о н/о +12.8 +7.1 68 +13 +13 1020.1 997.9
23 10.06 ЮЗ 1-2
{2}
н/о н/о +9.9 +7.0 82 +9 +9 1020.8 998.4
00 11.06 З 1-2
{5}
н/о н/о +8.6 +6.6 87 +8 +8 1020.9 998.5 0.2
01 11.06 З 2-2
{3}
н/о н/о +8.1 +6.2 88 +6 +6 1021.1 998.6
02 11.06 З 1-2
{3}
н/о н/о +7.4 +5.9 90 +6 +6 1021.4 998.8
03 11.06 З 1-3
{3}
н/о н/о +7.6 +6.1 90 +7 +7 1022.4 999.8
04 11.06 СЗ 2-4
{4}
н/о н/о +10.7 +7.2 79 +9 +9 1022.5 1000.1
05 11.06 З 3-4
{5}
н/о н/о +11.4 +7.5 77 +10 +10 1022.6 1000.3
06 11.06 СЗ 2-5
{6}
н/о н/о +12.9 +7.8 71 +12 +12 1022.8 1000.6 +7.3 +18.6 0.2
07 11.06 СЗ 3-6
{6}
н/о н/о +14.9 +7.9 63 +14 +14 1022.7 1000.6
08 11.06 С 3-6
{6}
н/о н/о +16.6 +8.1 57 +16 +16 1022.8 1000.9
09 11.06 СЗ 2-4
{5}
н/о н/о +17.2 +7.8 54 +18 +18 1022.9 1001.0
10 11.06 СЗ 3-5
{6}
н/о н/о +18.3 +7.7 50 +19 +19 1022.6 1000.8
11 11.06 С 3-6
{6}
н/о н/о +19.4 +5.5 40 +20 +20 1022.3 1000.6
12 11.06 С 4-6
{7}
н/о н/о +20.1 +6.1 40 +21 +21 комфорт 1022.2 1000.6
13 11.06 С 3-6
{8}
н/о н/о +19.8 +6.2 41 +21 +21 комфорт 1022.3 1000.7
14 11.06 С 4-7
{8}
н/о н/о +21.4 +5.3 35 +22 +22 комфорт 1021.8 1000.3
15 11.06 С 4-6
{7}
н/о н/о +20.9 +6.1 38 +22 +22 комфорт 1021.9 1000.3
16 11.06 С 4-8
{8}
н/о н/о +20.4 +5.3 37 +21 +21 комфорт 1021.9 1000.3
17 11.06 С 3-6
{7}
н/о н/о +20.5 +5.3 37 +22 +22 комфорт 1021.8 1000.2
18 11.06 С 4-7
{8}
н/о н/о +19.7 +6.1 41 +20 +20 1022.1 1000.4 +12.9 +21.9
19 11.06 СВ 3-6
{8}
н/о н/о +18.8 +7.0 46 +19 +19 1022.7 1000.9
20 11.06 СВ 3-5
{6}
н/о н/о +17.9 +7.1 49 +18 +18 1023.6 1001.8
21 11.06 СВ 2-5
{6}
н/о н/о +16.8 +6.3 50 +17 +17 1024.4 1002.5
22 11.06 В 2-5
{8}
н/о н/о +13.0 +7.7 70 +12 +12 1026.0 1003.7
23 11.06 ЮЗ 1-2
{3}
н/о н/о +11.3 +9.6 89 +11 +11 1026.4 1004.0
00 12.06 З 1-2
{8}
н/о н/о +10.6 +9.4 92 +10 +10 1027.1 1004.6 3
01 12.06 З 2-2
{2}
н/о н/о +10.3 +9.2 93 +9 +9 1027.1 1004.6
02 12.06 З 2-3
{4}
н/о н/о +10.1 +8.9 92 +8 +8 1026.8 1004.3
03 12.06 З 3-4
{5}
н/о н/о +9.4 +7.7 89 +7 +7 1026.2 1003.7
04 12.06 З 3-5
{5}
н/о н/о +8.9 +6.5 85 +6 +6 1026.6 1004.0
05 12.06 СЗ 3-5
{5}
н/о н/о +8.9 +6.0 82 +6 +6 1026.5 1003.9
06 12.06 СЗ 3-4
{7}
н/о н/о +8.9 +5.6 80 +6 +6 1027.3 1004.7 +8.8 +19.8 7
07 12.06 СЗ 3-5
{6}
н/о н/о +8.9 +4.3 73 +7 +7 1026.9 1004.4
08 12.06 СЗ 2-5
{6}
н/о н/о +9.4 +4.0 69 +8 +8 1026.8 1004.3
09 12.06 СЗ 3-5
{6}
н/о н/о +9.8 +4.2 68 +8 +8 1026.0 1003.5
10 12.06 З 3-5
{5}
н/о н/о +10.4 +3.9 64 +9 +9 1024.8 1002.4
11 12.06 СЗ 4-6
{7}
н/о н/о +11.3 +3.1 57 +9 +9 1023.9 1001.6
12 12.06 СЗ 4-8
{8}
28 км 10/0 2000 м
[Ac As]
+11.7 +2.5 53 +10 +13 1023.4 1001.1
13 12.06 СЗ 4-7
{8}
н/о н/о +12.4 +2.3 50 +11 +11 1023.7 1001.4
14 12.06 С 3-4
{7}
н/о н/о +12.6 +3.8 55 +11 +11 1023.4 1001.1
15 12.06 СЗ 3-6
{8}
н/о н/о +11.0 +4.9 66 +9 +9 1022.6 1000.3
16 12.06 С 3-5
{7}
н/о н/о +11.3 +3.8 60 +10 +10 1022.0 999.7
17 12.06 С 2-4
{7}
н/о н/о +9.7 +5.1 73 +8 +8 1021.6 999.2
18 12.06 СЗ 2-4
{8}
н/о н/о +8.6 +6.2 85 +7 +7 1021.5 999.1 +8.6 +12.8 0.4
19 12.06 З 2-3
{4}
н/о н/о +8.1 +6.7 91 +6 +6 1021.0 998.4
20 12.06 СЗ 3-7
{7}
н/о н/о +8.4 +6.4 87 +6 +6 1020.5 998.0
21 12.06 СЗ 3-5
{6}
н/о н/о +8.1 +6.6 90 +5 +5 1020.2 997.7
22 12.06 СЗ 4-5
{6}
н/о н/о +8.0 +6.5 90 +5 +5 1019.5 997.0
23 12.06 З 3-5
{6}
н/о н/о +8.0 +6.0 87 +5 +5 1018.7 996.2
00 13.06 СЗ 3-5
{7}
н/о н/о +8.2 +6.2 87 +5 +5 1017.7 995.2 4
01 13.06 СЗ 3-5
{6}
н/о н/о +8.5 +6.6 88 +6 +6 1016.1 993.7
02 13.06 СЗ 4-6
{6}
н/о н/о +8.3 +6.9 91 +5 +5 1014.1 991.8
03 13.06 СЗ 2-4
{6}
н/о н/о +8.6 +7.1 90 +7 +7 1012.9 990.6
04 13.06 З 3-5
{5}
н/о н/о +8.6 +7.5 93 +6 +6 1012.0 989.7
05 13.06 СЗ 2-4
{5}
н/о н/о +8.6 +7.9 95 +7 +7 1012.4 990.1
06 13.06 З 2-3
{6}
н/о н/о +8.9 +8.0 94 +7 +7 1012.3 990.1 +7.9 +8.9 18
07 13.06 СЗ 3-4
{4}
н/о н/о +8.9 +8.0 94 +6 +6 1012.0 989.7
08 13.06 СЗ 2-3
{4}
н/о н/о +9.5 +8.7 95 +8 +8 1011.9 989.7
09 13.06 СЗ 2-4
{4}
н/о н/о +10.1 +9.2 94 +8 +8 1012.0 989.9
10 13.06 З 2-3
{4}
н/о н/о +10.6 +9.7 94 +9 +9 1012.3 990.2
11 13.06 СЗ 3-3
{3}
н/о н/о +11.5 +10.6 94 +10 +10 1012.5 990.5
12 13.06 З 2-3
{4}
н/о {дождь} н/о +12.2 +11.1 93 +11 +11 1012.9 990.9 1
13 13.06 С 1-1
{3}
н/о н/о +13.0 +11.6 91 +13 +13 1013.1 991.1
14 13.06 В 1-1
{2}
н/о н/о +12.9 +11.3 90 +13 +13 1013.7 991.7
15 13.06 С 1-2
{2}
н/о н/о +13.0 +11.7 92 +13 +13 1013.7 991.7
16 13.06 С 1-2
{3}
н/о н/о +13.3 +12.0 92 +13 +13 1014.2 992.2
20 13.06 З 2-3
{3}
н/о н/о +12.5 +11.7 95 +11 +11 1015.9 993.9
21 13.06 СЗ 1-1
{2}
н/о н/о +12.1 +11.3 95 +12 +12 1016.8 994.7
22 13.06 З 1-2
{2}
н/о н/о +11.7 +11.1 96 +11 +11 1017.6 995.4
23 13.06 штиль 0-1
{1}
н/о н/о +10.2 +9.6 96 +9 +9 1018.1 995.8
00 14.06 штиль 0 н/о н/о +10.6 +10.1 97 +10 +10 1018.3 996.0
01 14.06 З 2-3
{3}
н/о н/о +10.6 +10.1 97 +9 +9 1017.7 995.5
02 14.06 В 1-1
{3}
н/о н/о +10.2 +9.8 97 +10 +10 1017.9 995.6
03 14.06 ЮВ 1-2
{2}
н/о н/о +10.1 +9.7 97 +9 +9 1018.7 996.4
04 14.06 С 1-2
{2}
н/о н/о +10.2 +9.8 97 +10 +10 1018.6 996.3
06 14.06 С 2 6000 м дымка {туман} 10/10 100 м
[St]
+11.3 +10.5 95 +10 +10 1019.1 996.9
07 14.06 З 1-2
{3}
н/о н/о +12.0 +10.4 90 +12 +12 1019.5 997.3
08 14.06 ЮВ 1-2
{2}
н/о н/о +12.9 +10.6 86 +13 +13 1019.6 997.5
10 14.06 В 2-3
{3}
н/о н/о +14.7 +10.7 77 +14 +14 1020.1 998.1
13 14.06 В 3-4
{5}
н/о н/о +18.5 +12.3 67 +19 +19 1019.1 997.4
14 14.06 В 3-6
{6}
н/о н/о +17.8 +10.7 63 +18 +18 1018.9 997.1
04 16.06 СЗ 2 н/о н/о +13.6 +9.1 74 +13 +13 1014.0 992.1
05 16.06 СЗ 1 н/о н/о +14.0 +9.0 72 +14 +14 1014.0 992.1
06 16.06 СЗ 2
{3}
26 км 10/0 2000 м
[Ac trans]
+15.1 +9.9 71 +15 +17 1013.9 992.0
07 16.06 С 1 н/о н/о +15.2 +10.4 73 +16 +16 1014.0 992.1
08 16.06 СЗ 1 н/о н/о +15.4 +11.8 79 +16 +16 1014.1 992.3
10 16.06 СЗ 1-2
{2}
н/о н/о +17.2 +12.5 74 +18 +18 1013.9 992.2
12 16.06 СЗ 1 27 км 10/0
[Ac trans]
+19.7 +13.2 66 +22 +29 комфорт 1013.5 992.0
13 16.06 В 1-2
{2}
н/о н/о +20.6 +12.1 58 +24 +24 комфорт 1013.2 991.8
14 16.06 ЮВ 1-2
{2}
н/о н/о +21.0 +13.5 62 +25 +25 комфорт 1013.0 991.6
15 16.06 В 2-3
{3}
н/о н/о +20.7 +12.9 61 +24 +24 комфорт 1012.9 991.5
16 16.06 Ю 2-4
{5}
н/о н/о +19.7 +12.7 64 +22 +22 комфорт 1013.1 991.7
17 16.06 В 2-4
{4}
н/о н/о +18.3 +13.2 72 +19 +19 1013.5 991.9
18 16.06 ЮВ 3-6
{6}
22 км 10/0 2000 м
[Ac trans]
+17.6 +13.1 75 +18 +18 1013.7 992.0
19 16.06 ЮВ 1-3
{6}
н/о н/о +16.5 +13.0 80 +17 +17 1013.8 992.1
20 16.06 В 2-4
{4}
н/о н/о +16.2 +12.9 81 +16 +16 1013.9 992.1
22 16.06 В 2-4
{5}
н/о н/о +15.0 +13.0 88 +15 +15 1014.1 992.3
23 16.06 В 3-5
{5}
н/о н/о +14.9 +12.0 83 +14 +14 1013.9 992.1
00 17.06 В 3 н/о н/о +14.3 +11.1 81 +13 +13 1014.1 992.2
01 17.06 В 2-4
{5}
н/о н/о +13.1 +10.3 83 +12 +12 1014.4 992.4
02 17.06 В 1-2
{4}
н/о н/о +13.0 +10.7 86 +13 +13 1014.3 992.3
04 17.06 ЮВ 2-4
{4}
н/о н/о +12.9 +10.6 86 +12 +12 1014.4 992.4
05 17.06 В 3-4
{5}
н/о н/о +13.0 +10.4 84 +12 +12 1014.3 992.3
06 17.06 В 3
{5}
26 км 10/10 300 м
[Cu Sc]
+13.3 +10.3 82 +12 +12 1014.3 992.3 +12.8
07 17.06 В 3-5
{6}
н/о н/о +13.7 +10.5 81 +13 +13 1014.5 992.5
08 17.06 ЮВ 2-5
{5}
н/о н/о +14.7 +11.1 79 +14 +14 1014.6 992.8
09 17.06 В 3-6
{6}
н/о н/о +15.9 +11.3 74 +15 +15 1014.6 992.8
10 17.06 В 3-6
{6}
н/о н/о +17.4 +11.4 68 +17 +17 1014.4 992.7
11 17.06 В 3-6
{6}
н/о н/о +19.6 +8.9 50 +21 +21 комфорт 1013.9 992.4
12 17.06 ЮВ 3-8
{8}
28 км 5/5 300 м
[Cu hum Ci fib]
+21.1 +8.1 43 +22 +28 комфорт 1013.6 992.2
13 17.06 В 3-7
{8}
н/о н/о +21.5 +7.7 41 +22 +22 комфорт 1013.2 991.9
14 17.06 ЮВ 4-8
{8}
н/о н/о +21.5 +7.4 40 +22 +22 комфорт 1013.2 991.8
15 17.06 В 5-8
{10}
н/о н/о +20.6 +7.9 44 +22 +22 комфорт 1013.1 991.7
16 17.06 В 4 н/о н/о +20.8 +9.4 48 +23 +23 комфорт 1013.1 991.7
18 17.06 В 4-9
{10}
28 км 3/1 300 м
[Cu hum Ac lent Ci fib]
+19.5 +10.5 56 +21 +21 комфорт 1013.0 991.5 +13.3 +22.3 0.4
19 17.06 ЮВ 4-8
{8}
н/о н/о +18.4 +10.3 59 +19 +19 1012.9 991.4
20 17.06 В 5-8
{10}
н/о н/о +16.6 +10.0 65 +16 +16 1013.9 992.1

 

Местоположение метеостанции Флиса (Норвегия): широта 60.61 долгота 12.01 высота над уровнем моря 185 м.

В архиве по умолчанию представлена погода во Флиса за последнюю неделю. Архивные данные за месяц целиком и за предыдущие месяцы, начиная с января 2011 года, Вы можете получить, выбрав интересующий диапазон дат из раскрывающегося списка и нажав кнопку "Ввод!".


*Определитесь, кто Вы:
робот инопланетянин человек

Внимание! Время в таблицах - всемирное. Для получения местного времени необходимо прибавить поправку, которая равна 1 ч.

Смотрите также архив погоды в соседних городах и на ближайших метеорологических станциях:

Погода в Браттмоне (Швеция) (44 км)
Погода в Конгсвингере (Норвегия) (47 км)
Погода в Хамаре (Норвегия) (54 км)
Погода в Хамар аэропорту (Норвегия) (56 км)
Погода в Апельсволле (Норвегия) (63 км)
Погода в Кисе Па Хедмарк (Норвегия) (68 км)
Погода в Осло аэропорту (Норвегия) (68 км)
Погода в Рена аэропорту (Норвегия) (73 км)
Погода в Трюсиль Вегстасьон (Норвегия) (77 км)
Погода в Эурскуге (Норвегия) (81 км)

Пояснения к столбцам:

Ветер - указаны скорость ветра в м/с - средняя за 10 мин, порывы в срок и между сроками (в фигурных скобках) и направление, откуда дует ветер: С - северный, СВ - северо-восточный, В - восточный, ЮВ - юго-восточный, Ю - южный, ЮЗ - юго-западный, З - западный, СЗ - северо-западный.
Видимость - горизонтальная дальность видимости в метрах или километрах. При видимости от 1 до 10 км при отсутствии осадков обычно наблюдается дымка, при ухудшении видимости до 1 км и менее - туман. В сухую погоду видимость может ухудшаться дымом, пылью или мглою.
Явления - указаны атмосферные явления, наблюдавшиеся в срок или в последний час перед сроком; фигурными скобками обозначены явления, наблюдавшиеся между сроками (за 1-3 часа до срока); квадратными скобками обозначены град или гололедные отложения с указанием их диаметра в мм.
Облачность - указаны через наклонную черту общая и нижняя облачность в баллах и высота нижней границы облаков в метрах; квадратными скобками обозначены формы облаков: Ci - перистые, Cs - перисто-слоистые, Cc - перисто-кучевые, Ac - высококучевые, As - высокослоистые, Sc - слоисто-кучевые, Ns - слоисто-дождевые, Cu - кучевые, Cb - кучево-дождевые. Подробнее классификацию облаков см. в Атласе облаков (PDF).
T - Температура воздуха - температура, измеренная на высоте 2 м над землей.
Td - Температура точки росы - температура, при понижении до которой содержащийся в воздухе водяной пар достигнет насыщения.
f - Относительная влажность воздуха - влажноcть воздуха, измеренная на высоте 2 м над землей.
Te - Эффективная температура - температура, которую ощущает одетый по сезону человек в тени. Характеристика душности погоды. При расчете учитывается влияние влажности воздуха и скорости ветра на теплоощущения человека.
Tes - Эффективная температура на солнце - температура, которую ощущает человек, с поправкой на солнечный нагрев. Характеристика знойности погоды. Зависит от высоты солнца над горизонтом, облачности и скорости ветра. Ночью, в пасмурную погоду, а также при ветре 12 м/с и более поправка равна нулю.
P - Атмосферное давление - приведенное к уровню моря атмосферное давление.
Po - Атмосферное давление - измеренное на уровне метеостанции атмосферное давление.
Tmin - Минимальная температура - минимум температуры воздуха на высоте 2 м над землей.
Tmax - Максимальная температура - максимум температуры воздуха на высоте 2 м над землей.
R - Количество осадков - Количество выпавших осадков за период времени, мм. При наведении курсора мыши на число - период времени, за который выпало указанное количество осадков.
R24 - Количество осадков - Количество выпавших осадков за 24 часа, мм.
S - Снежный покров - Высота снежного покрова, см. При наведении курсора мыши на число - состояние снежного покрова и степень покрытия местности в баллах.